This is the latest recevied weather packets stored in our database for station/object EA3HRE-13. If no packets are shown the sender has not sent any weather packets the latest 10 day(s).
| Time | Temp. | Humidity | Pressure | Rain* | Wind** | Luminosity | Snow |
|---|---|---|---|---|---|---|---|
| 1778077839 | 22.78° C | 100% | 1001.1 hPa | 0 mm | - | - | - |
| 1778077239 | 22.78° C | 100% | 1001.3 hPa | 0 mm | - | - | - |
| 1778076639 | 22.78° C | 100% | 1001.3 hPa | 0 mm | - | - | - |
| 1778076039 | 21.67° C | 100% | - | 0 mm | - | - | - |
| 1778075439 | 22.22° C | 100% | 1001.6 hPa | 0 mm | - | - | - |
| 1778074809 | 20° C | 100% | - | 0 mm | - | - | - |
| 1778074209 | 24.44° C | 100% | 1010.2 hPa | 0 mm | - | - | - |
| 1778073609 | 21.67° C | 100% | 1001.8 hPa | 0 mm | - | - | - |
| 1778073008 | 21.67° C | 100% | 1002 hPa | 0 mm | - | - | - |
| 1778072408 | 21.67° C | 100% | 1002.1 hPa | 0 mm | - | - | - |
| 1778071778 | 21.11° C | 100% | 1002.1 hPa | 0 mm | - | - | - |
| 1778071178 | 21.67° C | 100% | 1002.2 hPa | 0 mm | - | - | - |
| 1778070578 | 21.67° C | 100% | 1002.2 hPa | 0 mm | - | - | - |
| 1778069978 | 21.11° C | 100% | 1002.3 hPa | 0 mm | - | - | - |
| 1778069378 | 21.11° C | 100% | 1002.5 hPa | 0 mm | - | - | - |
| 1778068778 | 19.44° C | 100% | 1002.5 hPa | 0 mm | - | - | - |
| 1778068148 | 21.11° C | 100% | 1155.5 hPa | 0 mm | - | - | - |
| 1778067548 | 20.56° C | 100% | 1002.6 hPa | 0 mm | - | - | - |
| 1778066948 | 20° C | 100% | 1002.7 hPa | 0 mm | - | - | - |
| 1778066347 | 20° C | 100% | 1002.7 hPa | 0 mm | - | - | - |
| 1778065717 | 20° C | 100% | 1002.9 hPa | 0 mm | - | - | - |
| 1778065118 | 20° C | 100% | 1002.8 hPa | 0 mm | - | - | - |
| 1778064487 | 20° C | 100% | 1002.9 hPa | 0 mm | - | - | - |
| 1778063887 | 19.44° C | 100% | 1002.9 hPa | 0 mm | - | - | - |
| 1778063287 | 19.44° C | 100% | 1003 hPa | 0 mm | - | - | - |
* Rain latest hour (hover to see other rain measurements)
** Current wind speed in m/s (hover to see current wind gust speed)